User: anonymous   Login
Location: Celina Division
(33.3022°N, 96.7580°W)
Time: 14:01:35
(UTC+00:00)
Language:

DUCHIFAT 1 - Orbit

View from above orbital plane
View from above orbital plane
View from above satellite
View from above satellite

Ground track
Ground track

The orbit data is extracted from the following two-line orbital elements,

1 40021U 14033M   23085.88905821  .00010749  00000-0  95053-3 0  9993
2 40021  98.0498  47.3325 0011247 177.0619 183.0670 14.96458194476875
Epoch (UTC): 26 March 2023 21:20:14
Eccentricity: 0.0011247
inclination: 98.0498°
perigee height: 570 km
apogee height: 585 km
right ascension of ascending node: 47.3325°
argument of perigee: 177.0619°
revolutions per day: 14.96458194
mean anomaly at epoch: 183.0670°
orbit number at epoch: 47687

The dashed part of the orbit path shows where the satellite is in the earth's shadow,  

DLR